Yunyao-1 38

operational
NORAD ID: 62730 Int'l Des: NNA 2025-013 Owner: YYAO Country: CN
LEOCIRCULARRETROGRADESSO

About Yunyao-1 38

Description loading...

Live Position

Loading 3D Globe...

Upcoming Passes

Altitude History

Altitude vs Time

uPlot chart will show altitude changes over time

Two-Line Element Set

1 62730U 25013B 26063.17633970 .00005993 00000-0 36695-3 0 9990
2 62730 97.6455 232.5474 0013656 15.2810 344.8829 15.10500272 61470
Epoch: Mar 4, 2026 • Age: 11 hours

Current Status

Altitude 530.7 km
Velocity 7.61 km/s
Sub-Earth Point 35.39°N, 96.06°W
Launch Date Jan 20, 2025
Age 1.1 years
Type other

Technical Details

Classification Payload
Mass 50.00 kg
Dry Mass 50.00 kg
Total Mass 50.00 kg
Length 2.00 m
Diameter 1.50 m
Span 5.00 m
Shape Box + pan
Manufacturer CGSTL
Bus Type YY-1
Phase Status In Orbit
Owner/State YYAO/CN

Large Constellations

Loading constellations...